,,Stat6,,Stat2,,Stat8,,Stat9,,Stat10,,Wind1,,Wind1,
time,status,PA1M_AVG,status,PR1M_SUM,status,RH1M_AVG,status,SR1M_AVG,status,TA1M_AVG,status,W1dAve1m,status,W1sAve1m,
2007-07-08, 00:00:00,VALID,918.451,VALID,0,VALID,100,VALID,-0.0169808,VALID,20.8156,VALID,152,VALID,0,
2007-07-08, 00:01:00,VALID,918.425,VALID,0,VALID,100,VALID,-0.0169808,VALID,20.7861,VALID,152,VALID,0,
2007-07-08, 00:02:00,VALID,918.422,VALID,0,VALID,100,VALID,-0.0849042,VALID,20.7085,VALID,152,VALID,0,
2007-07-08, 00:03:00,VALID,918.422,VALID,0,VALID,100,VALID,-0.0169808,VALID,20.6328,VALID,152,VALID,0.13548,
2007-07-08, 00:04:00,VALID,918.435,VALID,0,VALID,100,VALID,-0.0169808,VALID,20.6044,VALID,152,VALID,0.169141,
2007-07-08, 00:05:00,VALID,918.429,VALID,0,VALID,100,VALID,-0.0169808,VALID,20.5906,VALID,152,VALID,0.00952744,
2007-07-08, 00:06:00,VALID,918.458,VALID,0,VALID,100,VALID,0,VALID,20.6036,VALID,152,VALID,0,
2007-07-08, 00:07:00,VALID,918.449,VALID,0,VALID,100,VALID,0,VALID,20.6074,VALID,152,VALID,0,
2007-07-08, 00:08:00,VALID,918.449,VALID,0,VALID,100,VALID,-0.0509425,VALID,20.6174,VALID,152,VALID,0,
2007-07-08, 00:09:00,VALID,918.43,VALID,0,VALID,100,VALID,-0.0169808,VALID,20.6106,VALID,152,VALID,0,
2007-07-08, 00:10:00,VALID,918.411,VALID,0,VALID,100,VALID,0,VALID,20.6334,VALID,152,VALID,0,
2007-07-08, 00:11:00,VALID,918.39,VALID,0,VALID,100,VALID,0,VALID,20.6563,VALID,152,VALID,0.00236192,
2007-07-08, 00:12:00,VALID,918.387,VALID,0,VALID,100,VALID,-0.0169808,VALID,20.6304,VALID,152,VALID,0.177284,
2007-07-08, 00:13:00,VALID,918.345,VALID,0,VALID,100,VALID,-0.0339617,VALID,20.6206,VALID,152,VALID,0.362043,
2007-07-08, 00:14:00,VALID,918.323,VALID,0,VALID,100,VALID,0,VALID,20.6196,VALID,152,VALID,0.400799,
2007-07-08, 00:15:00,VALID,918.288,VALID,0,VALID,100,VALID,0,VALID,20.6261,VALID,152,VALID,0.533984,
2007-07-08, 00:16:00,VALID,918.256,VALID,0,VALID,100,VALID,-0.0339617,VALID,20.6131,VALID,151,VALID,0.845703,
2007-07-08, 00:17:00,VALID,918.222,VALID,0,VALID,100,VALID,0,VALID,20.6171,VALID,144,VALID,0.758185,
2007-07-08, 00:18:00,VALID,918.209,VALID,0,VALID,100,VALID,0,VALID,20.6009,VALID,136,VALID,0.740007,
2007-07-08, 00:19:00,VALID,918.216,VALID,0,VALID,100,VALID,0,VALID,20.5579,VALID,126,VALID,0.813408,
2007-07-08, 00:20:00,VALID,918.216,VALID,0,VALID,100,VALID,0,VALID,20.539,VALID,128,VALID,1.11855,
2007-07-08, 00:21:00,VALID,918.22,VALID,0,VALID,100,VALID,-0.0339617,VALID,20.5719,VALID,129,VALID,1.04668,
2007-07-08, 00:22:00,VALID,918.237,VALID,0,VALID,100,VALID,0,VALID,20.5717,VALID,102,VALID,0.829492,
2007-07-08, 00:23:00,VALID,918.244,VALID,0,VALID,100,VALID,0,VALID,20.5425,VALID,103,VALID,0.938281,
2007-07-08, 00:24:00,VALID,918.259,VALID,0,VALID,100,VALID,0,VALID,20.5298,VALID,108,VALID,1.02227,
2007-07-08, 00:25:00,VALID,918.249,VALID,0,VALID,100,VALID,-0.0169808,VALID,20.4976,VALID,107,VALID,0.942224,
2007-07-08, 00:26:00,VALID,918.269,VALID,0,VALID,100,VALID,0,VALID,20.4743,VALID,122,VALID,1.03125,
2007-07-08, 00:27:00,VALID,918.249,VALID,0,VALID,100,VALID,-0.0339617,VALID,20.4586,VALID,121,VALID,0.857013,
2007-07-08, 00:28:00,VALID,918.241,VALID,0,VALID,100,VALID,0,VALID,20.4327,VALID,133,VALID,0.883371,
2007-07-08, 00:29:00,VALID,918.235,VALID,0,VALID,100,VALID,-0.0169808,VALID,20.4259,VALID,125,VALID,0.910714,
2007-07-08, 00:30:00,VALID,918.231,VALID,0,VALID,100,VALID,0,VALID,20.4159,VALID,127,VALID,0.903577,
2007-07-08, 00:31:00,VALID,918.227,VALID,0,VALID,100,VALID,0,VALID,20.4259,VALID,131,VALID,0.858648,
2007-07-08, 00:32:00,VALID,918.224,VALID,0,VALID,100,VALID,0,VALID,20.4454,VALID,131,VALID,0.966206,
2007-07-08, 00:33:00,VALID,918.22,VALID,0,VALID,100,VALID,0,VALID,20.4584,VALID,137,VALID,0.838194,
2007-07-08, 00:34:00,VALID,918.211,VALID,0,VALID,100,VALID,0,VALID,20.4584,VALID,130,VALID,0.771577,
2007-07-08, 00:35:00,VALID,918.204,VALID,0,VALID,100,VALID,-0.0169808,VALID,20.4619,VALID,130,VALID,0.720052,
2007-07-08, 00:36:00,VALID,918.2,VALID,0,VALID,100,VALID,0,VALID,20.4349,VALID,130,VALID,0.499818,
2007-07-08, 00:37:00,VALID,918.169,VALID,0,VALID,100,VALID,0,VALID,20.4224,VALID,130,VALID,0.467561,
2007-07-08, 00:38:00,VALID,918.149,VALID,0,VALID,100,VALID,0.0169808,VALID,20.4094,VALID,130,VALID,0.266211,
2007-07-08, 00:39:00,VALID,918.131,VALID,0,VALID,100,VALID,0.0169808,VALID,20.4029,VALID,129,VALID,0.314862,
2007-07-08, 00:40:00,VALID,918.112,VALID,0,VALID,100,VALID,0,VALID,20.3829,VALID,126,VALID,0.154576,
2007-07-08, 00:41:00,VALID,918.085,VALID,0,VALID,100,VALID,0,VALID,20.3802,VALID,126,VALID,0.147529,
2007-07-08, 00:42:00,VALID,918.052,VALID,0,VALID,100,VALID,-0.0169808,VALID,20.38,VALID,126,VALID,0.360863,
2007-07-08, 00:43:00,VALID,918.025,VALID,0,VALID,100,VALID,0,VALID,20.3765,VALID,129,VALID,0.440225,
2007-07-08, 00:44:00,VALID,917.998,VALID,0,VALID,100,VALID,-0.0339617,VALID,20.397,VALID,131,VALID,0.373884,
2007-07-08, 00:45:00,VALID,917.986,VALID,0,VALID,100,VALID,-0.0169808,VALID,20.3997,VALID,140,VALID,0.335938,
2007-07-08, 00:46:00,VALID,917.979,VALID,0,VALID,100,VALID,-0.0169808,VALID,20.3932,VALID,145,VALID,0.460938,
2007-07-08, 00:47:00,VALID,917.989,VALID,0,VALID,100,VALID,-0.0169808,VALID,20.3905,VALID,145,VALID,0.560865,
2007-07-08, 00:48:00,VALID,917.994,VALID,0,VALID,100,VALID,-0.0509425,VALID,20.3937,VALID,155,VALID,0.560138,
2007-07-08, 00:49:00,VALID,917.994,VALID,0,VALID,100,VALID,0,VALID,20.3999,VALID,158,VALID,0.532522,
2007-07-08, 00:50:00,VALID,918.003,VALID,0,VALID,100,VALID,0,VALID,20.4097,VALID,160,VALID,0.56715,
2007-07-08, 00:51:00,VALID,917.998,VALID,0,VALID,100,VALID,-0.0169808,VALID,20.3932,VALID,161,VALID,0.603711,
2007-07-08, 00:52:00,VALID,917.984,VALID,0,VALID,100,VALID,-0.0339617,VALID,20.4035,VALID,150,VALID,0.626143,
2007-07-08, 00:53:00,VALID,917.98,VALID,0,VALID,100,VALID,-0.0679233,VALID,20.3875,VALID,150,VALID,0.630451,
2007-07-08, 00:54:00,VALID,917.94,VALID,0,VALID,100,VALID,-0.0509425,VALID,20.374,VALID,149,VALID,0.631722,
2007-07-08, 00:55:00,VALID,917.914,VALID,0,VALID,100,VALID,-0.0509425,VALID,20.3515,VALID,145,VALID,0.672408,
2007-07-08, 00:56:00,VALID,917.886,VALID,0,VALID,100,VALID,-0.0339617,VALID,20.3385,VALID,147,VALID,0.526563,
2007-07-08, 00:57:00,VALID,917.882,VALID,0,VALID,100,VALID,-0.0339617,VALID,20.3256,VALID,146,VALID,0.634993,
2007-07-08, 00:58:00,VALID,917.863,VALID,0,VALID,100,VALID,-0.0169808,VALID,20.3123,VALID,148,VALID,0.554506,
2007-07-08, 00:59:00,VALID,917.854,VALID,0,VALID,100,VALID,-0.0509425,VALID,20.3061,VALID,160,VALID,0.460751,
2007-07-08, 01:00:00,VALID,917.836,VALID,0,VALID,100,VALID,-0.0169808,VALID,20.3064,VALID,163,VALID,0.603468,
2007-07-08, 01:01:00,VALID,917.843,VALID,0,VALID,100,VALID,-0.0339617,VALID,20.3026,VALID,163,VALID,0.530007,
2007-07-08, 01:02:00,VALID,917.838,VALID,0,VALID,100,VALID,-0.0169808,VALID,20.3128,VALID,167,VALID,0.574898,
2007-07-08, 01:03:00,VALID,917.828,VALID,0,VALID,100,VALID,-0.0509425,VALID,20.2964,VALID,171,VALID,0.423549,
2007-07-08, 01:04:00,VALID,917.814,VALID,0,VALID,100,VALID,-0.0679233,VALID,20.2866,VALID,172,VALID,0.246626,
2007-07-08, 01:05:00,VALID,917.805,VALID,0,VALID,100,VALID,-0.0679233,VALID,20.2736,VALID,166,VALID,0.346354,
2007-07-08, 01:06:00,VALID,917.81,VALID,0,VALID,100,VALID,-0.0679233,VALID,20.2904,VALID,166,VALID,0.379002,
2007-07-08, 01:07:00,VALID,917.793,VALID,0,VALID,100,VALID,-0.0509425,VALID,20.2936,VALID,166,VALID,0.305859,
2007-07-08, 01:08:00,VALID,917.783,VALID,0,VALID,100,VALID,-0.0339617,VALID,20.2864,VALID,165,VALID,0.303199,
2007-07-08, 01:09:00,VALID,917.775,VALID,0,VALID,100,VALID,-0.0169808,VALID,20.2796,VALID,165,VALID,0.178234,
2007-07-08, 01:10:00,VALID,917.766,VALID,0,VALID,100,VALID,0,VALID,20.2701,VALID,165,VALID,0.551711,
2007-07-08, 01:11:00,VALID,917.758,VALID,0,VALID,100,VALID,0,VALID,20.2699,VALID,162,VALID,0.743096,
2007-07-08, 01:12:00,VALID,917.746,VALID,0,VALID,100,VALID,0,VALID,20.2864,VALID,157,VALID,0.851376,
2007-07-08, 01:13:00,VALID,917.738,VALID,0,VALID,100,VALID,-0.0169808,VALID,20.2996,VALID,148,VALID,0.858259,
2007-07-08, 01:14:00,VALID,917.724,VALID,0,VALID,100,VALID,-0.0339617,VALID,20.2859,VALID,144,VALID,0.881904,
2007-07-08, 01:15:00,VALID,917.722,VALID,0,VALID,100,VALID,0.0169808,VALID,20.2654,VALID,139,VALID,0.826823,
2007-07-08, 01:16:00,VALID,917.723,VALID,0,VALID,100,VALID,0.0339617,VALID,20.2429,VALID,124,VALID,0.883185,
2007-07-08, 01:17:00,VALID,917.738,VALID,0,VALID,100,VALID,0.0169808,VALID,20.2204,VALID,131,VALID,0.877604,
2007-07-08, 01:18:00,VALID,917.745,VALID,0,VALID,100,VALID,0.0169808,VALID,20.2007,VALID,136,VALID,0.558222,
2007-07-08, 01:19:00,VALID,917.747,VALID,0,VALID,100,VALID,0.0339617,VALID,20.1877,VALID,134,VALID,0.650977,
2007-07-08, 01:20:00,VALID,917.739,VALID,0,VALID,100,VALID,0,VALID,20.1683,VALID,146,VALID,0.468924,
2007-07-08, 01:21:01,VALID,917.727,VALID,0,VALID,100,VALID,0.0339617,VALID,20.1485,VALID,148,VALID,0.625558,
2007-07-08, 01:22:00,VALID,917.72,VALID,0,VALID,100,VALID,0.0509425,VALID,20.1356,VALID,148,VALID,0.838481,
2007-07-08, 01:23:00,VALID,917.709,VALID,0,VALID,100,VALID,0.0339617,VALID,20.1123,VALID,150,VALID,0.68045,
2007-07-08, 01:24:00,VALID,917.698,VALID,0,VALID,100,VALID,0.0169808,VALID,20.1164,VALID,148,VALID,0.930778,
2007-07-08, 01:25:00,VALID,917.697,VALID,0,VALID,100,VALID,0.0509425,VALID,20.1099,VALID,140,VALID,0.694586,
2007-07-08, 01:26:00,VALID,917.707,VALID,0,VALID,100,VALID,0.0339617,VALID,20.0891,VALID,152,VALID,0.559766,
2007-07-08, 01:27:00,VALID,917.704,VALID,0,VALID,100,VALID,0.0509425,VALID,20.0999,VALID,142,VALID,0.544398,
2007-07-08, 01:28:01,VALID,917.711,VALID,0,VALID,100,VALID,0.0169808,VALID,20.0901,VALID,150,VALID,0.578472,
2007-07-08, 01:29:00,VALID,917.719,VALID,0,VALID,100,VALID,0.0339617,VALID,20.0837,VALID,151,VALID,0.584847,
2007-07-08, 01:30:00,VALID,917.718,VALID,0,VALID,100,VALID,0.0509425,VALID,20.0702,VALID,143,VALID,0.493459,
2007-07-08, 01:31:01,VALID,917.718,VALID,0,VALID,100,VALID,0.0679233,VALID,20.0569,VALID,134,VALID,0.736979,
2007-07-08, 01:32:01,VALID,917.729,VALID,0,VALID,100,VALID,0.0509425,VALID,20.0545,VALID,113,VALID,0.713542,
2007-07-08, 01:33:00,VALID,917.723,VALID,0,VALID,100,VALID,0.0679233,VALID,20.0417,VALID,109,VALID,0.759487,
2007-07-08, 01:34:01,VALID,917.722,VALID,0,VALID,100,VALID,0,VALID,20.035,VALID,108,VALID,0.779492,
2007-07-08, 01:35:00,VALID,917.725,VALID,0,VALID,100,VALID,0.0339617,VALID,20.0385,VALID,105,VALID,0.922917,
2007-07-08, 01:36:01,VALID,917.718,VALID,0,VALID,100,VALID,0,VALID,20.032,VALID,120,VALID,0.993359,
2007-07-08, 01:37:00,VALID,917.699,VALID,0,VALID,100,VALID,0.0509425,VALID,20.0447,VALID,143,VALID,1.16867,
2007-07-08, 01:38:01,VALID,917.67,VALID,0,VALID,100,VALID,0,VALID,20.0742,VALID,145,VALID,1.36275,
2007-07-08, 01:39:01,VALID,917.64,VALID,0,VALID,100,VALID,0,VALID,20.0904,VALID,142,VALID,1.508,
2007-07-08, 01:40:00,VALID,917.602,VALID,0,VALID,100,VALID,0.0339617,VALID,20.1064,VALID,155,VALID,1.21665,
2007-07-08, 01:41:00,VALID,917.575,VALID,0,VALID,100,VALID,0.0339617,VALID,20.1161,VALID,154,VALID,1.74237,
2007-07-08, 01:42:00,VALID,917.544,VALID,0,VALID,100,VALID,0,VALID,20.1129,VALID,150,VALID,1.54865,
2007-07-08, 01:43:00,VALID,917.55,VALID,0,VALID,100,VALID,0.0679233,VALID,20.1226,VALID,154,VALID,1.15534,
2007-07-08, 01:44:01,VALID,917.545,VALID,0,VALID,100,VALID,0,VALID,20.1363,VALID,158,VALID,1.48926,
2007-07-08, 01:45:00,VALID,917.541,VALID,0,VALID,100,VALID,-0.0679233,VALID,20.1438,VALID,158,VALID,1.71018,
2007-07-08, 01:46:00,VALID,917.553,VALID,0,VALID,100,VALID,-0.0849042,VALID,20.1503,VALID,158,VALID,0.897485,
2007-07-08, 01:47:01,VALID,917.541,VALID,0,VALID,100,VALID,-0.0849042,VALID,20.1403,VALID,155,VALID,1.42024,
2007-07-08, 01:48:01,VALID,917.546,VALID,0,VALID,100,VALID,-0.101885,VALID,20.1466,VALID,152,VALID,1.34375,
2007-07-08, 01:49:01,VALID,917.532,VALID,0,VALID,100,VALID,-0.118866,VALID,20.1541,VALID,151,VALID,1.23971,
2007-07-08, 01:50:00,VALID,917.532,VALID,0,VALID,100,VALID,-0.101885,VALID,20.1409,VALID,144,VALID,0.99891,
2007-07-08, 01:51:01,VALID,917.549,VALID,0,VALID,100,VALID,-0.101885,VALID,20.1409,VALID,136,VALID,1.07122,
2007-07-08, 01:52:01,VALID,917.553,VALID,0,VALID,100,VALID,-0.0679233,VALID,20.1403,VALID,137,VALID,1.00515,
2007-07-08, 01:53:00,VALID,917.55,VALID,0,VALID,100,VALID,-0.0849042,VALID,20.1411,VALID,136,VALID,1.24764,
2007-07-08, 01:54:00,VALID,917.554,VALID,0,VALID,100,VALID,-0.0679233,VALID,20.1371,VALID,139,VALID,0.987464,
2007-07-08, 01:55:00,VALID,917.541,VALID,0,VALID,100,VALID,-0.0679233,VALID,20.1341,VALID,140,VALID,0.965843,
2007-07-08, 01:56:00,VALID,917.517,VALID,0,VALID,100,VALID,-0.0339617,VALID,20.1436,VALID,145,VALID,1.34966,
2007-07-08, 01:57:01,VALID,917.505,VALID,0,VALID,100,VALID,-0.0849042,VALID,20.1371,VALID,146,VALID,1.66317,
2007-07-08, 01:58:01,VALID,917.481,VALID,0,VALID,100,VALID,-0.0509425,VALID,20.1271,VALID,157,VALID,1.03506,
2007-07-08, 01:59:01,VALID,917.475,VALID,0,VALID,100,VALID,-0.0509425,VALID,20.1304,VALID,151,VALID,1.41992,
2007-07-08, 02:00:00,VALID,917.464,VALID,0,VALID,100,VALID,0.0169808,VALID,20.1353,VALID,158,VALID,1.35173,
2007-07-08, 02:01:01,VALID,917.446,VALID,0,VALID,100,VALID,0.0169808,VALID,20.1456,VALID,158,VALID,1.39501,
2007-07-08, 02:02:01,VALID,917.433,VALID,0,VALID,100,VALID,0.0679233,VALID,20.1583,VALID,161,VALID,1.33612,
2007-07-08, 02:03:01,VALID,917.422,VALID,0,VALID,100,VALID,0,VALID,20.158,VALID,166,VALID,1.22275,
2007-07-08, 02:04:01,VALID,917.419,VALID,0,VALID,100,VALID,0,VALID,20.165,VALID,170,VALID,1.28626,
2007-07-08, 02:05:01,VALID,917.399,VALID,0,VALID,100,VALID,0.0339617,VALID,20.1583,VALID,173,VALID,0.677734,
2007-07-08, 02:06:00,VALID,917.373,VALID,0,VALID,100,VALID,0.0509425,VALID,20.1421,VALID,157,VALID,1.12671,
2007-07-08, 02:07:01,VALID,917.376,VALID,0,VALID,100,VALID,0,VALID,20.1358,VALID,165,VALID,0.743902,
2007-07-08, 02:08:01,VALID,917.378,VALID,0,VALID,100,VALID,0,VALID,20.1096,VALID,160,VALID,0.695112,
2007-07-08, 02:09:01,VALID,917.389,VALID,0,VALID,100,VALID,0,VALID,20.0904,VALID,161,VALID,0.690407,
2007-07-08, 02:10:01,VALID,917.392,VALID,0,VALID,100,VALID,0.0169808,VALID,20.0807,VALID,147,VALID,0.696456,
2007-07-08, 02:11:01,VALID,917.391,VALID,0,VALID,100,VALID,0,VALID,20.0772,VALID,160,VALID,0.897656,
2007-07-08, 02:12:01,VALID,917.39,VALID,0,VALID,100,VALID,0,VALID,20.0709,VALID,154,VALID,1.06383,
2007-07-08, 02:13:01,VALID,917.375,VALID,0,VALID,100,VALID,0,VALID,20.048,VALID,144,VALID,0.748183,
2007-07-08, 02:14:01,VALID,917.359,VALID,0,VALID,100,VALID,-0.0339617,VALID,20.0293,VALID,143,VALID,0.797238,
2007-07-08, 02:15:00,VALID,917.339,VALID,0,VALID,100,VALID,-0.101885,VALID,20.024,VALID,133,VALID,0.981534,
2007-07-08, 02:16:00,VALID,917.303,VALID,0,VALID,100,VALID,-0.0849042,VALID,20.0043,VALID,123,VALID,0.797805,
2007-07-08, 02:17:00,VALID,917.293,VALID,0,VALID,100,VALID,-0.0679233,VALID,19.9684,VALID,112,VALID,0.676314,
2007-07-08, 02:18:00,VALID,917.264,VALID,0,VALID,100,VALID,-0.0849042,VALID,19.9524,VALID,93,VALID,0.879616,
2007-07-08, 02:19:00,VALID,917.242,VALID,0,VALID,100,VALID,-0.0679233,VALID,19.9459,VALID,90,VALID,0.673147,
2007-07-08, 02:20:00,VALID,917.222,VALID,0,VALID,100,VALID,-0.0849042,VALID,19.9135,VALID,94,VALID,0.624199,
2007-07-08, 02:21:00,VALID,917.191,VALID,0,VALID,100,VALID,-0.0679233,VALID,19.891,VALID,99,VALID,0.501272,
2007-07-08, 02:22:00,VALID,917.169,VALID,0,VALID,100,VALID,-0.0509425,VALID,19.8875,VALID,100,VALID,0.513317,
2007-07-08, 02:23:00,VALID,917.154,VALID,0,VALID,100,VALID,-0.101885,VALID,19.8972,VALID,127,VALID,0.83817,
2007-07-08, 02:24:00,VALID,917.142,VALID,0,VALID,100,VALID,-0.101885,VALID,19.9229,VALID,135,VALID,0.626999,
2007-07-08, 02:25:00,VALID,917.138,VALID,0,VALID,100,VALID,-0.0849042,VALID,19.9556,VALID,145,VALID,0.906068,
2007-07-08, 02:26:00,VALID,917.132,VALID,0,VALID,100,VALID,-0.0509425,VALID,19.9813,VALID,158,VALID,0.379092,
2007-07-08, 02:27:00,VALID,917.143,VALID,0,VALID,100,VALID,-0.0679233,VALID,19.9913,VALID,159,VALID,0.396307,
2007-07-08, 02:28:00,VALID,917.135,VALID,0,VALID,100,VALID,-0.101885,VALID,20.0041,VALID,162,VALID,0.383956,
2007-07-08, 02:29:00,VALID,917.134,VALID,0,VALID,100,VALID,-0.101885,VALID,20.0076,VALID,165,VALID,0.0635417,
2007-07-08, 02:30:00,VALID,917.125,VALID,0,VALID,100,VALID,-0.0849042,VALID,19.9878,VALID,165,VALID,0.00114329,
2007-07-08, 02:31:00,VALID,917.097,VALID,0,VALID,100,VALID,-0.0679233,VALID,19.9913,VALID,167,VALID,0.147892,
2007-07-08, 02:32:00,VALID,917.098,VALID,0,VALID,100,VALID,-0.101885,VALID,19.9978,VALID,172,VALID,0.208031,
2007-07-08, 02:33:00,VALID,917.09,VALID,0,VALID,100,VALID,-0.101885,VALID,19.9816,VALID,172,VALID,0.0241997,
2007-07-08, 02:34:00,VALID,917.092,VALID,0,VALID,100,VALID,-0.101885,VALID,19.9649,VALID,172,VALID,0.00121528,
2007-07-08, 02:35:00,VALID,917.09,VALID,0,VALID,100,VALID,-0.0679233,VALID,19.9065,VALID,172,VALID,0,
2007-07-08, 02:36:00,VALID,917.089,VALID,0,VALID,100,VALID,-0.0509425,VALID,19.868,VALID,169,VALID,0.150391,
2007-07-08, 02:37:00,VALID,917.086,VALID,0,VALID,100,VALID,-0.0849042,VALID,19.8843,VALID,151,VALID,0.277058,
2007-07-08, 02:38:00,VALID,917.066,VALID,0,VALID,100,VALID,-0.0169808,VALID,19.8907,VALID,141,VALID,0.500363,
2007-07-08, 02:39:00,VALID,917.046,VALID,0,VALID,100,VALID,-0.0849042,VALID,19.8937,VALID,129,VALID,0.652798,
2007-07-08, 02:40:00,VALID,917.034,VALID,0,VALID,100,VALID,-0.0509425,VALID,19.8843,VALID,130,VALID,0.858285,
2007-07-08, 02:41:00,VALID,917.008,VALID,0,VALID,100,VALID,-0.101885,VALID,19.8648,VALID,137,VALID,0.833939,
2007-07-08, 02:42:00,VALID,916.986,VALID,0,VALID,100,VALID,-0.0679233,VALID,19.8481,VALID,145,VALID,1.10633,
2007-07-08, 02:43:00,VALID,916.965,VALID,0,VALID,100,VALID,-0.0339617,VALID,19.8386,VALID,141,VALID,0.784884,
2007-07-08, 02:44:00,VALID,916.959,VALID,0,VALID,100,VALID,-0.0339617,VALID,19.8253,VALID,149,VALID,0.931463,
2007-07-08, 02:45:00,VALID,916.92,VALID,0,VALID,100,VALID,-0.0849042,VALID,19.8191,VALID,156,VALID,0.794531,
2007-07-08, 02:46:00,VALID,916.917,VALID,0,VALID,100,VALID,-0.0679233,VALID,19.8129,VALID,144,VALID,0.749818,
2007-07-08, 02:47:00,VALID,916.906,VALID,0,VALID,100,VALID,-0.0849042,VALID,19.7964,VALID,149,VALID,1.002,
2007-07-08, 02:48:00,VALID,916.899,VALID,0,VALID,100,VALID,-0.101885,VALID,19.7802,VALID,154,VALID,0.93099,
2007-07-08, 02:49:00,VALID,916.891,VALID,0,VALID,100,VALID,-0.0509425,VALID,19.7632,VALID,141,VALID,0.949219,
2007-07-08, 02:50:00,VALID,916.899,VALID,0,VALID,100,VALID,-0.101885,VALID,19.7607,VALID,138,VALID,0.802344,
2007-07-08, 02:51:00,VALID,916.893,VALID,0,VALID,100,VALID,-0.0509425,VALID,19.761,VALID,135,VALID,0.830305,
2007-07-08, 02:52:00,VALID,916.905,VALID,0,VALID,100,VALID,-0.0509425,VALID,19.7412,VALID,133,VALID,0.65843,
2007-07-08, 02:53:00,VALID,916.916,VALID,0,VALID,100,VALID,-0.0509425,VALID,19.7283,VALID,146,VALID,0.749047,
2007-07-08, 02:54:00,VALID,916.899,VALID,0,VALID,100,VALID,-0.0849042,VALID,19.741,VALID,134,VALID,0.924361,
2007-07-08, 02:55:00,VALID,916.893,VALID,0,VALID,100,VALID,-0.0679233,VALID,19.7412,VALID,130,VALID,0.797045,
2007-07-08, 02:56:00,VALID,916.883,VALID,0,VALID,100,VALID,-0.0509425,VALID,19.751,VALID,140,VALID,1.09133,
2007-07-08, 02:57:00,VALID,916.869,VALID,0,VALID,100,VALID,-0.0339617,VALID,19.731,VALID,141,VALID,0.765224,
2007-07-08, 02:58:00,VALID,916.856,VALID,0,VALID,100,VALID,-0.0679233,VALID,19.7283,VALID,157,VALID,1.02798,
2007-07-08, 02:59:00,VALID,916.845,VALID,0,VALID,100,VALID,-0.0849042,VALID,19.7415,VALID,132,VALID,0.918403,
2007-07-08, 03:00:00,VALID,916.84,VALID,0,VALID,100,VALID,-0.0509425,VALID,19.7382,VALID,141,VALID,0.891183,
2007-07-08, 03:01:00,VALID,916.827,VALID,0,VALID,100,VALID,-0.0509425,VALID,19.7407,VALID,139,VALID,0.732617,
2007-07-08, 03:02:00,VALID,916.816,VALID,0,VALID,100,VALID,-0.0509425,VALID,19.728,VALID,131,VALID,0.82793,
2007-07-08, 03:03:00,VALID,916.816,VALID,0,VALID,100,VALID,-0.0849042,VALID,19.7155,VALID,129,VALID,0.875977,
2007-07-08, 03:04:00,VALID,916.793,VALID,0,VALID,100,VALID,-0.0849042,VALID,19.7145,VALID,124,VALID,0.90957,
2007-07-08, 03:05:00,VALID,916.783,VALID,0,VALID,100,VALID,-0.0509425,VALID,19.6953,VALID,118,VALID,1.00124,
2007-07-08, 03:06:00,VALID,916.766,VALID,0,VALID,100,VALID,-0.0509425,VALID,19.6921,VALID,123,VALID,1.02995,
2007-07-08, 03:07:00,VALID,916.746,VALID,0,VALID,100,VALID,-0.0849042,VALID,19.6761,VALID,105,VALID,0.925391,
2007-07-08, 03:08:00,VALID,916.737,VALID,0,VALID,100,VALID,-0.0849042,VALID,19.6499,VALID,105,VALID,0.897135,
2007-07-08, 03:09:00,VALID,916.744,VALID,0,VALID,100,VALID,-0.0509425,VALID,19.6244,VALID,105,VALID,0.744992,
2007-07-08, 03:10:00,VALID,916.734,VALID,0,VALID,100,VALID,-0.0339617,VALID,19.6344,VALID,122,VALID,0.95148,
2007-07-08, 03:11:00,VALID,916.727,VALID,0,VALID,100,VALID,-0.0509425,VALID,19.6272,VALID,113,VALID,0.723264,
2007-07-08, 03:12:00,VALID,916.713,VALID,0,VALID,100,VALID,-0.0509425,VALID,19.6212,VALID,110,VALID,0.897866,
2007-07-08, 03:13:00,VALID,916.698,VALID,0,VALID,100,VALID,-0.0509425,VALID,19.608,VALID,118,VALID,0.926417,
2007-07-08, 03:14:00,VALID,916.672,VALID,0,VALID,100,VALID,-0.0339617,VALID,19.6177,VALID,122,VALID,1.03735,
2007-07-08, 03:15:00,VALID,916.661,VALID,0,VALID,100,VALID,-0.0169808,VALID,19.6372,VALID,123,VALID,0.862351,
2007-07-08, 03:16:00,VALID,916.637,VALID,0,VALID,100,VALID,0,VALID,19.6429,VALID,125,VALID,0.964844,
2007-07-08, 03:17:00,VALID,916.63,VALID,0,VALID,100,VALID,0,VALID,19.6559,VALID,135,VALID,0.649219,
2007-07-08, 03:18:00,VALID,916.65,VALID,0,VALID,100,VALID,0,VALID,19.6464,VALID,134,VALID,0.265625,
2007-07-08, 03:19:00,VALID,916.648,VALID,0,VALID,100,VALID,0,VALID,19.6372,VALID,133,VALID,0.51734,
2007-07-08, 03:20:00,VALID,916.634,VALID,0,VALID,100,VALID,-0.0169808,VALID,19.614,VALID,128,VALID,0.131214,
2007-07-08, 03:21:00,VALID,916.618,VALID,0,VALID,100,VALID,0,VALID,19.6015,VALID,128,VALID,0.370094,
2007-07-08, 03:22:00,VALID,916.596,VALID,0,VALID,100,VALID,-0.0169808,VALID,19.5977,VALID,128,VALID,0.550426,
2007-07-08, 03:23:00,VALID,916.58,VALID,0,VALID,100,VALID,-0.0169808,VALID,19.5843,VALID,128,VALID,0.643102,
2007-07-08, 03:24:00,VALID,916.567,VALID,0,VALID,100,VALID,-0.0169808,VALID,19.6107,VALID,128,VALID,0.652876,
2007-07-08, 03:25:00,VALID,916.558,VALID,0,VALID,100,VALID,0,VALID,19.6075,VALID,126,VALID,0.602148,
2007-07-08, 03:26:00,VALID,916.55,VALID,0,VALID,100,VALID,0,VALID,19.5818,VALID,125,VALID,0.47561,
2007-07-08, 03:27:00,VALID,916.551,VALID,0,VALID,100,VALID,0,VALID,19.5296,VALID,126,VALID,0.733817,
2007-07-08, 03:28:00,VALID,916.564,VALID,0,VALID,100,VALID,-0.0169808,VALID,19.5069,VALID,130,VALID,0.6633,
2007-07-08, 03:29:00,VALID,916.569,VALID,0,VALID,100,VALID,0,VALID,19.4907,VALID,119,VALID,0.633203,
2007-07-08, 03:30:00,VALID,916.581,VALID,0,VALID,100,VALID,0,VALID,19.4453,VALID,107,VALID,0.707775,
2007-07-08, 03:31:00,VALID,916.596,VALID,0,VALID,100,VALID,-0.0169808,VALID,19.426,VALID,105,VALID,0.81936,
2007-07-08, 03:32:00,VALID,916.595,VALID,0,VALID,100,VALID,0,VALID,19.4295,VALID,121,VALID,1.03181,
2007-07-08, 03:33:00,VALID,916.612,VALID,0,VALID,100,VALID,0,VALID,19.458,VALID,117,VALID,1.22676,
2007-07-08, 03:34:00,VALID,916.605,VALID,0,VALID,100,VALID,0,VALID,19.5004,VALID,99,VALID,0.925033,
2007-07-08, 03:35:00,VALID,916.605,VALID,0,VALID,100,VALID,-0.0169808,VALID,19.474,VALID,88,VALID,0.905878,
2007-07-08, 03:36:00,VALID,916.595,VALID,0,VALID,100,VALID,-0.0169808,VALID,19.452,VALID,95,VALID,0.972384,
2007-07-08, 03:37:00,VALID,916.592,VALID,0,VALID,100,VALID,-0.0169808,VALID,19.439,VALID,114,VALID,1.01048,
2007-07-08, 03:38:00,VALID,916.58,VALID,0,VALID,100,VALID,0,VALID,19.4388,VALID,115,VALID,1.04408,
2007-07-08, 03:39:00,VALID,916.576,VALID,0,VALID,100,VALID,0,VALID,19.4592,VALID,121,VALID,1.21693,
2007-07-08, 03:40:00,VALID,916.573,VALID,0,VALID,100,VALID,-0.0509425,VALID,19.4233,VALID,118,VALID,1.07333,
2007-07-08, 03:41:00,VALID,916.583,VALID,0,VALID,100,VALID,-0.0509425,VALID,19.4038,VALID,148,VALID,0.919271,
2007-07-08, 03:42:00,VALID,916.579,VALID,0,VALID,100,VALID,-0.0339617,VALID,19.4163,VALID,142,VALID,0.990854,